TimeCDT,TemperatureF,Dew PointF,Humidity,Sea Level PressureIn,VisibilityMPH,Wind Direction,Wind SpeedMPH,Gust SpeedMPH,PrecipitationIn,Events,Conditions,WindDirDegrees,DateUTC
12:53 AM,52.0,46.9,83,30.00,10.0,SE,4.6,-,N/A,,Clear,130,2013-10-10 05:53:00
1:53 AM,52.0,46.9,83,30.00,10.0,SE,3.5,-,N/A,,Clear,140,2013-10-10 06:53:00
2:53 AM,50.0,46.9,89,30.00,10.0,SSE,6.9,-,N/A,,Clear,150,2013-10-10 07:53:00
3:53 AM,51.1,46.9,86,30.00,10.0,SSE,6.9,-,N/A,,Clear,150,2013-10-10 08:53:00
4:53 AM,50.0,46.9,89,30.01,10.0,SE,3.5,-,N/A,,Clear,140,2013-10-10 09:53:00
5:53 AM,48.9,46.0,90,30.01,10.0,SE,5.8,-,N/A,,Clear,130,2013-10-10 10:53:00
6:53 AM,48.9,46.9,93,30.00,10.0,ESE,3.5,-,N/A,,Clear,120,2013-10-10 11:53:00
7:53 AM,48.9,46.9,93,30.02,10.0,SSE,4.6,-,N/A,,Clear,150,2013-10-10 12:53:00
8:53 AM,55.9,51.1,84,30.02,10.0,SSE,4.6,-,N/A,,Clear,150,2013-10-10 13:53:00
9:53 AM,64.0,53.1,67,30.01,10.0,South,6.9,-,N/A,,Clear,170,2013-10-10 14:53:00
10:53 AM,71.1,55.0,57,30.00,10.0,South,15.0,-,N/A,,Clear,190,2013-10-10 15:53:00
11:53 AM,73.9,55.0,52,29.98,10.0,South,13.8,-,N/A,,Clear,170,2013-10-10 16:53:00
12:53 PM,77.0,55.0,47,29.96,10.0,South,13.8,25.3,N/A,,Clear,170,2013-10-10 17:53:00
1:53 PM,78.1,55.9,46,29.93,10.0,South,15.0,23.0,N/A,,Clear,170,2013-10-10 18:53:00
2:53 PM,79.0,55.0,44,29.89,10.0,SSE,18.4,24.2,N/A,,Clear,150,2013-10-10 19:53:00
3:53 PM,79.0,54.0,42,29.88,10.0,SSE,20.7,32.2,N/A,,Clear,160,2013-10-10 20:53:00
4:53 PM,79.0,54.0,42,29.87,10.0,South,17.3,26.5,N/A,,Clear,170,2013-10-10 21:53:00
5:53 PM,75.9,55.0,48,29.86,10.0,SSE,13.8,21.9,N/A,,Clear,150,2013-10-10 22:53:00
6:53 PM,71.1,55.0,57,29.86,10.0,SE,6.9,-,N/A,,Clear,130,2013-10-10 23:53:00
7:53 PM,66.9,54.0,63,29.86,10.0,SE,6.9,-,N/A,,Clear,130,2013-10-11 00:53:00
8:53 PM,64.9,54.0,68,29.85,10.0,SSE,8.1,-,N/A,,Clear,150,2013-10-11 01:53:00
9:53 PM,64.0,54.0,70,29.84,10.0,SSE,11.5,-,N/A,,Clear,150,2013-10-11 02:53:00
10:53 PM,63.0,53.1,70,29.82,10.0,SE,6.9,-,N/A,,Clear,130,2013-10-11 03:53:00
11:53 PM,62.1,53.1,72,29.83,10.0,SE,8.1,-,N/A,,Clear,140,2013-10-11 04:53:00